Simultaneous Nadir Overpasses (SNOs) Predictions

Prediction of SNOs between METOP-B and NOAA-19 Satellite Orbit:

Table of predicted SNOs for the next 14.0 days since TLE Epoch: 10/15/2012
Index Date (METOP-B) Time (METOP-B) METOP-B Lat,Lon Date (NOAA-19) Time (NOAA-19) NOAA-19 Lat,Lon Distance(km) Time Diff (sec)
1 10/17/2012 04:50:04 -73.18, -79.72 10/17/2012 04:48:49 -73.22, -79.76 3.70 75
2 10/17/2012 05:40:45 73.16, 87.55 10/17/2012 05:39:48 73.16, 87.60 1.67 57
3 10/17/2012 06:31:26 -73.17,-105.10 10/17/2012 06:30:53 -73.17,-105.17 2.46 33
4 10/17/2012 07:22:07 73.14, 62.18 10/17/2012 07:21:52 73.12, 62.19 2.99 15
5 10/17/2012 08:12:49 -73.10,-130.58 10/17/2012 08:12:57 -73.12,-130.58 1.55 8
6 10/17/2012 09:03:30 73.07, 36.69 10/17/2012 09:03:56 73.07, 36.78 3.10 26
7 10/17/2012 09:54:11 -73.08,-155.96 10/17/2012 09:55:01 -73.07,-155.99 2.41 50
8 10/17/2012 10:44:52 73.06, 11.31 10/17/2012 10:46:01 73.07, 11.26 1.96 69
9 10/17/2012 11:35:46 -72.41, 177.30 10/17/2012 11:36:53 -72.42, 179.87 86.19 67
10 10/27/2012 03:01:42 -73.81, -51.20 10/27/2012 03:00:35 -73.82, -54.05 88.49 67
11 10/27/2012 03:52:35 73.16, 114.65 10/27/2012 03:51:20 73.17, 114.73 2.66 75
12 10/27/2012 04:43:17 -73.15, -78.06 10/27/2012 04:42:26 -73.14, -77.97 3.23 51
13 10/27/2012 05:33:57 73.15, 89.27 10/27/2012 05:33:24 73.12, 89.32 3.04 33
14 10/27/2012 06:24:39 -73.13,-103.43 10/27/2012 06:24:31 -73.14,-103.49 1.99 8
15 10/27/2012 07:15:19 73.13, 63.90 10/27/2012 07:15:29 73.13, 63.79 3.50 10
16 10/27/2012 08:06:02 -73.07,-128.92 10/27/2012 08:06:35 -73.09,-128.91 2.61 33
17 10/27/2012 08:56:42 73.06, 38.41 10/27/2012 08:57:33 73.08, 38.38 1.91 51
18 10/27/2012 09:47:25 -73.00,-154.40 10/27/2012 09:48:39 -73.04,-154.32 5.36 74
19 10/27/2012 10:38:18 72.34, 11.57 10/27/2012 10:39:24 72.38, 14.34 93.66 66




NCC Satellite Simultaneous Nadir Overpasses (SNOs) Prediction Service
